カタログに戻る

CENTAURI-8

運用中通信SSO
NORAD 62714·PAYLOAD·🇦🇺 Australia

打ち上げ Jan 14, 2025 から Vandenberg Space Force Base

Loading…

次のパス (今後24時間)

TLE

最新Source: Space-Track

元期: Sep 14, 2026, 11:06 UTC

1 62714U 25009DK  26257.46276850  .00001994  00000-0  17264-3 0  9992
2 62714  97.7002 336.3946 0001321 157.4616 202.6665 14.98262955 90847

AllMySatでCENTAURI-8をリアルタイム追跡

Download on the App Store